Time,TemperatureF,DewpointF,PressureIn,WindDirection,WindDirectionDegrees,WindSpeedMPH,WindSpeedGustMPH,Humidity,HourlyPrecipIn,Conditions,Clouds,dailyrainin,SolarRadiationWatts/m^2,SoftwareType,DateUTC
2013-02-22 00:00:00,26.2,17.4,30.12,North,5,0.0,6.0,69,0.00,,,0.00,0,WeatherCatV1.13B119,2013-02-22 05:00:00,
2013-02-22 00:05:00,26.2,17.1,30.12,East,80,1.0,2.0,68,0.00,,,0.00,0,WeatherCatV1.13B119,2013-02-22 05:05:00,
2013-02-22 00:10:00,26.2,17.1,30.12,NW,325,0.0,0.0,68,0.00,,,0.00,0,WeatherCatV1.13B119,2013-02-22 05:10:00,
2013-02-22 00:15:00,26.2,17.4,30.12,NE,36,2.0,5.0,69,0.00,,,0.00,0,WeatherCatV1.13B119,2013-02-22 05:15:00,
2013-02-22 00:20:00,26.2,17.8,30.11,NNW,348,0.0,5.0,70,0.00,,,0.00,0,WeatherCatV1.13B119,2013-02-22 05:20:00,
2013-02-22 00:25:00,26.2,17.8,30.11,NE,38,5.0,5.0,70,0.00,,,0.00,0,WeatherCatV1.13B119,2013-02-22 05:25:00,
2013-02-22 00:30:00,26.2,17.8,30.11,WNW,288,1.0,4.0,70,0.00,,,0.00,0,WeatherCatV1.13B119,2013-02-22 05:30:00,
2013-02-22 00:35:00,26.3,17.9,30.11,NNE,33,1.0,8.0,70,0.00,,,0.00,0,WeatherCatV1.13B119,2013-02-22 05:35:00,
2013-02-22 00:40:00,26.4,18.3,30.11,NW,313,1.0,3.0,71,0.00,,,0.00,0,WeatherCatV1.13B119,2013-02-22 05:40:00,
2013-02-22 00:45:00,26.5,18.1,30.11,NE,39,1.0,3.0,70,0.00,,,0.00,0,WeatherCatV1.13B119,2013-02-22 05:45:00,
2013-02-22 00:50:00,26.5,18.1,30.11,NE,42,1.0,4.0,70,0.00,,,0.00,0,WeatherCatV1.13B119,2013-02-22 05:50:00,
2013-02-22 00:55:00,26.3,18.2,30.11,NW,319,0.0,1.0,71,0.00,,,0.00,0,WeatherCatV1.13B119,2013-02-22 05:55:00,
2013-02-22 01:00:00,26.2,18.1,30.11,North,355,1.0,1.0,71,0.00,,,0.00,0,WeatherCatV1.13B119,2013-02-22 06:00:00,
2013-02-22 01:05:00,26.2,18.1,30.12,WNW,286,0.0,6.0,71,0.00,,,0.00,0,WeatherCatV1.13B119,2013-02-22 06:05:00,
2013-02-22 01:10:00,26.1,18.3,30.11,NNE,30,0.0,1.0,72,0.00,,,0.00,0,WeatherCatV1.13B119,2013-02-22 06:10:00,
2013-02-22 01:15:00,26.1,18.3,30.11,NE,42,3.0,5.0,72,0.00,,,0.00,0,WeatherCatV1.13B119,2013-02-22 06:15:00,
2013-02-22 01:20:00,26.1,18.3,30.11,North,0,2.0,2.0,72,0.00,,,0.00,0,WeatherCatV1.13B119,2013-02-22 06:20:00,
2013-02-22 01:25:00,26.0,18.2,30.11,North,0,0.0,2.0,72,0.00,,,0.00,0,WeatherCatV1.13B119,2013-02-22 06:25:00,
2013-02-22 01:30:00,26.0,18.6,30.12,NNE,30,1.0,2.0,73,0.00,,,0.00,0,WeatherCatV1.13B119,2013-02-22 06:30:00,
2013-02-22 01:35:00,26.1,18.7,30.12,NNW,333,0.0,5.0,73,0.00,,,0.00,0,WeatherCatV1.13B119,2013-02-22 06:35:00,
2013-02-22 01:40:00,26.2,18.7,30.13,NW,319,2.0,4.0,73,0.00,,,0.00,0,WeatherCatV1.13B119,2013-02-22 06:40:00,
2013-02-22 01:45:00,26.2,19.1,30.12,NNE,28,1.0,3.0,74,0.00,,,0.00,0,WeatherCatV1.13B119,2013-02-22 06:45:00,
2013-02-22 01:50:00,26.3,19.2,30.12,NNW,341,0.0,1.0,74,0.00,,,0.00,0,WeatherCatV1.13B119,2013-02-22 06:50:00,
2013-02-22 01:55:00,26.3,19.2,30.13,North,351,0.0,2.0,74,0.00,,,0.00,0,WeatherCatV1.13B119,2013-02-22 06:55:00,
2013-02-22 02:00:00,26.3,19.5,30.13,NW,304,0.0,1.0,75,0.00,,,0.00,0,WeatherCatV1.13B119,2013-02-22 07:00:00,
2013-02-22 02:05:00,26.3,19.5,30.12,North,355,1.0,4.0,75,0.00,,,0.00,0,WeatherCatV1.13B119,2013-02-22 07:05:00,
2013-02-22 02:10:00,26.3,19.5,30.11,NE,38,0.0,4.0,75,0.00,,,0.00,0,WeatherCatV1.13B119,2013-02-22 07:10:00,
2013-02-22 02:15:00,26.4,19.3,30.12,East,83,0.0,1.0,74,0.00,,,0.00,0,WeatherCatV1.13B119,2013-02-22 07:15:00,
2013-02-22 02:20:00,26.2,19.4,30.12,NW,306,0.0,0.0,75,0.00,,,0.00,0,WeatherCatV1.13B119,2013-02-22 07:20:00,
2013-02-22 02:25:00,26.1,19.3,30.12,NNW,342,0.0,3.0,75,0.00,,,0.00,0,WeatherCatV1.13B119,2013-02-22 07:25:00,
2013-02-22 02:30:00,26.2,19.4,30.13,NNW,344,2.0,3.0,75,0.00,,,0.00,0,WeatherCatV1.13B119,2013-02-22 07:30:00,
2013-02-22 02:35:00,26.1,19.3,30.13,North,9,0.0,2.0,75,0.00,,,0.00,0,WeatherCatV1.13B119,2013-02-22 07:35:00,
2013-02-22 02:40:00,26.1,19.3,30.12,NW,314,1.0,5.0,75,0.00,,,0.00,0,WeatherCatV1.13B119,2013-02-22 07:40:00,
2013-02-22 02:45:00,26.1,19.3,30.13,NNW,346,0.0,2.0,75,0.00,,,0.00,0,WeatherCatV1.13B119,2013-02-22 07:45:00,
2013-02-22 02:50:00,26.0,19.2,30.13,NNE,21,2.0,5.0,75,0.00,,,0.00,0,WeatherCatV1.13B119,2013-02-22 07:50:00,
2013-02-22 02:55:00,26.0,19.2,30.13,NW,318,0.0,4.0,75,0.00,,,0.00,0,WeatherCatV1.13B119,2013-02-22 07:55:00,
2013-02-22 03:00:00,25.9,19.1,30.14,WNW,302,0.0,3.0,75,0.00,,,0.00,0,WeatherCatV1.13B119,2013-02-22 08:00:00,
2013-02-22 03:05:00,26.0,19.2,30.14,WNW,300,0.0,5.0,75,0.00,,,0.00,0,WeatherCatV1.13B119,2013-02-22 08:05:00,
2013-02-22 03:10:00,25.9,19.1,30.14,NNW,346,1.0,2.0,75,0.00,,,0.00,0,WeatherCatV1.13B119,2013-02-22 08:10:00,
2013-02-22 03:15:00,25.9,19.4,30.15,NNW,329,1.0,3.0,76,0.00,,,0.00,0,WeatherCatV1.13B119,2013-02-22 08:15:00,
2013-02-22 03:20:00,25.9,19.4,30.16,NNW,338,1.0,1.0,76,0.00,,,0.00,0,WeatherCatV1.13B119,2013-02-22 08:20:00,
2013-02-22 03:25:00,25.8,19.3,30.16,NNW,347,0.0,2.0,76,0.00,,,0.00,0,WeatherCatV1.13B119,2013-02-22 08:25:00,
2013-02-22 03:30:00,25.8,19.3,30.16,NE,39,2.0,4.0,76,0.00,,,0.00,0,WeatherCatV1.13B119,2013-02-22 08:30:00,
2013-02-22 03:35:00,25.9,19.7,30.15,NNW,344,0.0,2.0,77,0.00,,,0.00,0,WeatherCatV1.13B119,2013-02-22 08:35:00,
2013-02-22 03:40:00,25.9,19.4,30.16,North,355,2.0,2.0,76,0.00,,,0.00,0,WeatherCatV1.13B119,2013-02-22 08:40:00,
2013-02-22 03:45:00,25.9,19.7,30.16,North,355,0.0,1.0,77,0.00,,,0.00,0,WeatherCatV1.13B119,2013-02-22 08:45:00,
2013-02-22 03:50:00,26.1,19.9,30.17,NNW,338,0.0,3.0,77,0.00,,,0.00,0,WeatherCatV1.13B119,2013-02-22 08:50:00,
2013-02-22 03:55:00,26.3,19.8,30.16,North,0,0.0,6.0,76,0.00,,,0.00,0,WeatherCatV1.13B119,2013-02-22 08:55:00,
2013-02-22 04:00:00,26.3,19.8,30.16,NNW,341,1.0,5.0,76,0.00,,,0.00,0,WeatherCatV1.13B119,2013-02-22 09:00:00,
2013-02-22 04:05:00,26.4,19.9,30.15,NNE,33,1.0,3.0,76,0.00,,,0.00,0,WeatherCatV1.13B119,2013-02-22 09:05:00,
2013-02-22 04:10:00,26.3,19.8,30.15,NW,323,0.0,2.0,76,0.00,,,0.00,0,WeatherCatV1.13B119,2013-02-22 09:10:00,
2013-02-22 04:15:00,26.1,19.6,30.16,NNE,29,1.0,2.0,76,0.00,,,0.00,0,WeatherCatV1.13B119,2013-02-22 09:15:00,
2013-02-22 04:20:00,26.0,19.8,30.16,NE,44,1.0,1.0,77,0.00,,,0.00,0,WeatherCatV1.13B119,2013-02-22 09:20:00,
2013-02-22 04:25:00,25.8,19.6,30.16,NW,317,0.0,1.0,77,0.00,,,0.00,0,WeatherCatV1.13B119,2013-02-22 09:25:00,
2013-02-22 04:30:00,25.7,19.5,30.17,NW,317,0.0,0.0,77,0.00,,,0.00,0,WeatherCatV1.13B119,2013-02-22 09:30:00,
2013-02-22 04:35:00,25.6,19.7,30.17,NW,317,1.0,2.0,78,0.00,,,0.00,0,WeatherCatV1.13B119,2013-02-22 09:35:00,
2013-02-22 04:40:00,25.5,19.3,30.18,WNW,291,1.0,4.0,77,0.00,,,0.00,0,WeatherCatV1.13B119,2013-02-22 09:40:00,
2013-02-22 04:45:00,25.6,19.7,30.18,NW,309,0.0,2.0,78,0.00,,,0.00,0,WeatherCatV1.13B119,2013-02-22 09:45:00,
2013-02-22 04:50:00,25.5,19.6,30.17,NW,309,0.0,0.0,78,0.00,,,0.00,0,WeatherCatV1.13B119,2013-02-22 09:50:00,
2013-02-22 04:55:00,25.4,19.8,30.18,North,5,0.0,0.0,79,0.00,,,0.00,0,WeatherCatV1.13B119,2013-02-22 09:55:00,
2013-02-22 05:00:00,25.3,19.4,30.18,NW,323,0.0,0.0,78,0.00,,,0.00,0,WeatherCatV1.13B119,2013-02-22 10:00:00,
2013-02-22 05:05:00,25.3,19.4,30.18,NNW,348,1.0,3.0,78,0.00,,,0.00,0,WeatherCatV1.13B119,2013-02-22 10:05:00,
2013-02-22 05:10:00,25.4,19.5,30.17,North,350,2.0,3.0,78,0.00,,,0.00,0,WeatherCatV1.13B119,2013-02-22 10:10:00,
2013-02-22 05:15:00,25.5,19.6,30.17,North,9,0.0,2.0,78,0.00,,,0.00,0,WeatherCatV1.13B119,2013-02-22 10:15:00,
2013-02-22 05:20:00,25.5,19.6,30.17,NE,53,0.0,3.0,78,0.00,,,0.00,0,WeatherCatV1.13B119,2013-02-22 10:20:00,
2013-02-22 05:25:00,25.4,19.5,30.17,NNE,32,1.0,1.0,78,0.00,,,0.00,0,WeatherCatV1.13B119,2013-02-22 10:25:00,
2013-02-22 05:30:00,25.4,19.5,30.17,ENE,66,2.0,3.0,78,0.00,,,0.00,0,WeatherCatV1.13B119,2013-02-22 10:30:00,
2013-02-22 05:35:00,25.3,19.4,30.17,WNW,296,0.0,2.0,78,0.00,,,0.00,0,WeatherCatV1.13B119,2013-02-22 10:35:00,
2013-02-22 05:40:00,25.2,19.3,30.17,WNW,296,1.0,3.0,78,0.00,,,0.00,0,WeatherCatV1.13B119,2013-02-22 10:40:00,
2013-02-22 05:45:00,25.1,19.2,30.18,NW,311,0.0,0.0,78,0.00,,,0.00,0,WeatherCatV1.13B119,2013-02-22 10:45:00,
2013-02-22 05:50:00,25.0,19.1,30.19,WNW,302,2.0,2.0,78,0.00,,,0.00,0,WeatherCatV1.13B119,2013-02-22 10:50:00,
2013-02-22 05:55:00,25.1,19.5,30.20,WNW,294,0.0,2.0,79,0.00,,,0.00,0,WeatherCatV1.13B119,2013-02-22 10:55:00,
2013-02-22 06:00:00,25.1,19.5,30.20,WNW,294,0.0,0.0,79,0.00,,,0.00,0,WeatherCatV1.13B119,2013-02-22 11:00:00,
2013-02-22 06:05:00,25.0,19.4,30.20,WNW,298,0.0,2.0,79,0.00,,,0.00,0,WeatherCatV1.13B119,2013-02-22 11:05:00,
2013-02-22 06:10:00,25.0,19.4,30.21,WNW,301,2.0,2.0,79,0.00,,,0.00,0,WeatherCatV1.13B119,2013-02-22 11:10:00,
2013-02-22 06:15:00,25.1,19.5,30.21,NW,322,0.0,2.0,79,0.00,,,0.00,0,WeatherCatV1.13B119,2013-02-22 11:15:00,
2013-02-22 06:20:00,25.1,19.5,30.21,NW,318,0.0,1.0,79,0.00,,,0.00,0,WeatherCatV1.13B119,2013-02-22 11:20:00,
2013-02-22 06:25:00,25.1,19.5,30.22,WNW,299,0.0,2.0,79,0.00,,,0.00,0,WeatherCatV1.13B119,2013-02-22 11:25:00,
2013-02-22 06:30:00,25.2,19.6,30.22,WNW,299,0.0,2.0,79,0.00,,,0.00,0,WeatherCatV1.13B119,2013-02-22 11:30:00,
2013-02-22 06:35:00,25.2,19.6,30.22,WNW,301,0.0,2.0,79,0.00,,,0.00,5,WeatherCatV1.13B119,2013-02-22 11:35:00,
2013-02-22 06:40:00,25.3,19.7,30.22,North,350,0.0,0.0,79,0.00,,,0.00,0,WeatherCatV1.13B119,2013-02-22 11:40:00,
2013-02-22 06:45:00,25.3,19.7,30.23,North,355,0.0,2.0,79,0.00,,,0.00,5,WeatherCatV1.13B119,2013-02-22 11:45:00,
2013-02-22 06:50:00,25.4,19.8,30.23,NNE,28,0.0,1.0,79,0.00,,,0.00,11,WeatherCatV1.13B119,2013-02-22 11:50:00,
2013-02-22 06:55:00,25.6,20.0,30.23,North,0,0.0,0.0,79,0.00,,,0.00,14,WeatherCatV1.13B119,2013-02-22 11:55:00,
2013-02-22 07:00:00,25.6,19.7,30.23,North,355,0.0,0.0,78,0.00,,,0.00,16,WeatherCatV1.13B119,2013-02-22 12:00:00,
2013-02-22 07:05:00,25.6,19.7,30.24,North,0,2.0,2.0,78,0.00,,,0.00,23,WeatherCatV1.13B119,2013-02-22 12:05:00,
2013-02-22 07:10:00,25.7,19.8,30.23,NNE,28,1.0,3.0,78,0.00,,,0.00,25,WeatherCatV1.13B119,2013-02-22 12:10:00,
2013-02-22 07:15:00,25.9,20.0,30.23,NNE,31,0.0,2.0,78,0.00,,,0.00,30,WeatherCatV1.13B119,2013-02-22 12:15:00,
2013-02-22 07:20:00,26.0,20.1,30.23,ENE,57,0.0,2.0,78,0.00,,,0.00,35,WeatherCatV1.13B119,2013-02-22 12:20:00,
2013-02-22 07:25:00,26.0,20.1,30.23,North,11,0.0,1.0,78,0.00,,,0.00,37,WeatherCatV1.13B119,2013-02-22 12:25:00,
2013-02-22 07:30:00,26.1,20.2,30.23,North,9,0.0,0.0,78,0.00,,,0.00,39,WeatherCatV1.13B119,2013-02-22 12:30:00,
2013-02-22 07:35:00,26.2,20.3,30.23,WNW,298,0.0,3.0,78,0.00,,,0.00,51,WeatherCatV1.13B119,2013-02-22 12:35:00,
2013-02-22 07:40:00,26.3,20.4,30.24,WNW,296,0.0,0.0,78,0.00,,,0.00,62,WeatherCatV1.13B119,2013-02-22 12:40:00,
2013-02-22 07:45:00,26.6,20.7,30.23,WNW,296,0.0,1.0,78,0.00,,,0.00,70,WeatherCatV1.13B119,2013-02-22 12:45:00,
2013-02-22 07:50:00,26.8,20.6,30.24,ENE,69,0.0,0.0,77,0.00,,,0.00,72,WeatherCatV1.13B119,2013-02-22 12:50:00,
2013-02-22 07:55:00,26.9,20.7,30.24,NW,309,0.0,0.0,77,0.00,,,0.00,79,WeatherCatV1.13B119,2013-02-22 12:55:00,
2013-02-22 08:00:00,27.2,21.0,30.24,NW,309,0.0,2.0,77,0.00,,,0.00,91,WeatherCatV1.13B119,2013-02-22 13:00:00,
2013-02-22 08:05:00,27.4,20.8,30.23,NNE,24,0.0,1.0,76,0.00,,,0.00,102,WeatherCatV1.13B119,2013-02-22 13:05:00,
2013-02-22 08:10:00,27.6,20.7,30.24,NE,42,1.0,5.0,75,0.00,,,0.00,111,WeatherCatV1.13B119,2013-02-22 13:10:00,
2013-02-22 08:15:00,27.8,20.6,30.24,WNW,300,3.0,4.0,74,0.00,,,0.00,104,WeatherCatV1.13B119,2013-02-22 13:15:00,
2013-02-22 08:20:00,27.9,21.0,30.24,NW,321,0.0,0.0,75,0.00,,,0.00,102,WeatherCatV1.13B119,2013-02-22 13:20:00,
2013-02-22 08:25:00,28.2,21.3,30.25,WNW,298,1.0,3.0,75,0.00,,,0.00,111,WeatherCatV1.13B119,2013-02-22 13:25:00,
2013-02-22 08:30:00,28.2,20.7,30.25,West,274,1.0,3.0,73,0.00,,,0.00,120,WeatherCatV1.13B119,2013-02-22 13:30:00,
2013-02-22 08:35:00,28.3,20.8,30.25,North,5,0.0,1.0,73,0.00,,,0.00,118,WeatherCatV1.13B119,2013-02-22 13:35:00,
2013-02-22 08:40:00,28.5,21.0,30.24,ENE,78,0.0,3.0,73,0.00,,,0.00,113,WeatherCatV1.13B119,2013-02-22 13:40:00,
2013-02-22 08:45:00,28.6,21.1,30.24,NNW,338,0.0,1.0,73,0.00,,,0.00,105,WeatherCatV1.13B119,2013-02-22 13:45:00,
2013-02-22 08:50:00,28.7,20.8,30.25,NW,325,1.0,3.0,72,0.00,,,0.00,114,WeatherCatV1.13B119,2013-02-22 13:50:00,
2013-02-22 08:55:00,28.7,21.2,30.25,NE,48,1.0,1.0,73,0.00,,,0.00,141,WeatherCatV1.13B119,2013-02-22 13:55:00,
2013-02-22 09:00:00,28.9,21.4,30.25,NW,321,0.0,2.0,73,0.00,,,0.00,151,WeatherCatV1.13B119,2013-02-22 14:00:00,
2013-02-22 09:05:00,29.3,21.4,30.25,ENE,63,3.0,5.0,72,0.00,,,0.00,167,WeatherCatV1.13B119,2013-02-22 14:05:00,
2013-02-22 09:10:00,29.4,21.2,30.24,NNW,348,2.0,4.0,71,0.00,,,0.00,174,WeatherCatV1.13B119,2013-02-22 14:10:00,
2013-02-22 09:15:00,29.5,21.3,30.24,NW,323,0.0,1.0,71,0.00,,,0.00,162,WeatherCatV1.13B119,2013-02-22 14:15:00,
2013-02-22 09:20:00,29.4,21.2,30.24,North,5,0.0,4.0,71,0.00,,,0.00,149,WeatherCatV1.13B119,2013-02-22 14:20:00,
2013-02-22 09:25:00,29.4,21.2,30.23,NNW,343,1.0,3.0,71,0.00,,,0.00,137,WeatherCatV1.13B119,2013-02-22 14:25:00,
2013-02-22 09:30:00,29.6,21.4,30.23,North,0,2.0,2.0,71,0.00,,,0.00,211,WeatherCatV1.13B119,2013-02-22 14:30:00,
2013-02-22 09:35:00,30.1,21.9,30.23,North,11,0.0,2.0,71,0.00,,,0.00,216,WeatherCatV1.13B119,2013-02-22 14:35:00,
2013-02-22 09:40:00,30.6,22.0,30.23,ENE,57,1.0,4.0,70,0.00,,,0.00,265,WeatherCatV1.13B119,2013-02-22 14:40:00,
2013-02-22 09:45:00,30.6,22.3,30.23,NE,48,0.0,1.0,71,0.00,,,0.00,330,WeatherCatV1.13B119,2013-02-22 14:45:00,
2013-02-22 09:50:00,31.2,21.5,30.23,ENE,59,0.0,5.0,67,0.00,,,0.00,294,WeatherCatV1.13B119,2013-02-22 14:50:00,
2013-02-22 09:55:00,31.7,22.4,30.23,North,11,1.0,2.0,68,0.00,,,0.00,272,WeatherCatV1.13B119,2013-02-22 14:55:00,
2013-02-22 10:00:00,31.8,22.1,30.23,NE,44,0.0,3.0,67,0.00,,,0.00,315,WeatherCatV1.13B119,2013-02-22 15:00:00,
2013-02-22 10:05:00,32.2,22.8,30.23,NE,53,1.0,5.0,68,0.00,,,0.00,450,WeatherCatV1.13B119,2013-02-22 15:05:00,
2013-02-22 10:10:00,32.2,22.1,30.22,East,91,0.0,4.0,66,0.00,,,0.00,401,WeatherCatV1.13B119,2013-02-22 15:10:00,
2013-02-22 10:15:00,32.6,22.5,30.22,NE,50,2.0,6.0,66,0.00,,,0.00,353,WeatherCatV1.13B119,2013-02-22 15:15:00,
2013-02-22 10:20:00,32.9,23.2,30.22,NNE,16,0.0,3.0,67,0.00,,,0.00,367,WeatherCatV1.13B119,2013-02-22 15:20:00,
2013-02-22 10:25:00,32.7,22.6,30.23,East,89,0.0,3.0,66,0.00,,,0.00,341,WeatherCatV1.13B119,2013-02-22 15:25:00,
2013-02-22 10:30:00,33.4,23.3,30.23,WNW,294,1.0,2.0,66,0.00,,,0.00,545,WeatherCatV1.13B119,2013-02-22 15:30:00,
2013-02-22 10:35:00,33.4,23.3,30.23,NNE,28,1.0,3.0,66,0.00,,,0.00,468,WeatherCatV1.13B119,2013-02-22 15:35:00,
2013-02-22 10:40:00,34.1,23.2,30.23,NE,42,0.0,2.0,64,0.00,,,0.00,448,WeatherCatV1.13B119,2013-02-22 15:40:00,
2013-02-22 10:45:00,33.9,22.7,30.23,East,84,0.0,1.0,63,0.00,,,0.00,621,WeatherCatV1.13B119,2013-02-22 15:45:00,
2013-02-22 10:50:00,34.6,23.3,30.23,North,0,0.0,0.0,63,0.00,,,0.00,322,WeatherCatV1.13B119,2013-02-22 15:50:00,
2013-02-22 10:55:00,33.9,23.4,30.23,NNE,27,0.0,3.0,65,0.00,,,0.00,420,WeatherCatV1.13B119,2013-02-22 15:55:00,
2013-02-22 11:00:00,34.8,23.9,30.23,NE,50,1.0,5.0,64,0.00,,,0.00,489,WeatherCatV1.13B119,2013-02-22 16:00:00,
2013-02-22 11:05:00,35.1,23.8,30.23,North,355,0.0,1.0,63,0.00,,,0.00,429,WeatherCatV1.13B119,2013-02-22 16:05:00,
2013-02-22 11:10:00,35.2,23.5,30.23,NE,46,3.0,5.0,62,0.00,,,0.00,575,WeatherCatV1.13B119,2013-02-22 16:10:00,
2013-02-22 11:15:00,35.0,23.3,30.23,East,83,0.0,2.0,62,0.00,,,0.00,457,WeatherCatV1.13B119,2013-02-22 16:15:00,
2013-02-22 11:20:00,35.3,24.4,30.23,ENE,75,0.0,4.0,64,0.00,,,0.00,536,WeatherCatV1.13B119,2013-02-22 16:20:00,
2013-02-22 11:25:00,35.4,23.7,30.22,NNW,336,0.0,1.0,62,0.00,,,0.00,557,WeatherCatV1.13B119,2013-02-22 16:25:00,
2013-02-22 11:30:00,36.4,24.3,30.22,WNW,296,1.0,3.0,61,0.00,,,0.00,563,WeatherCatV1.13B119,2013-02-22 16:30:00,
2013-02-22 11:35:00,36.6,24.8,30.22,NE,45,5.0,7.0,62,0.00,,,0.00,311,WeatherCatV1.13B119,2013-02-22 16:35:00,
2013-02-22 11:40:00,36.0,23.9,30.22,NNW,346,2.0,4.0,61,0.00,,,0.00,288,WeatherCatV1.13B119,2013-02-22 16:40:00,
2013-02-22 11:45:00,35.7,24.0,30.23,WNW,288,0.0,3.0,62,0.00,,,0.00,299,WeatherCatV1.13B119,2013-02-22 16:45:00,
2013-02-22 11:50:00,35.4,24.1,30.22,ENE,63,2.0,5.0,63,0.00,,,0.00,308,WeatherCatV1.13B119,2013-02-22 16:50:00,
2013-02-22 11:55:00,36.1,24.7,30.21,NNW,341,1.0,1.0,63,0.00,,,0.00,269,WeatherCatV1.13B119,2013-02-22 16:55:00,
2013-02-22 12:00:00,35.9,23.8,30.22,NE,42,0.0,2.0,61,0.00,,,0.00,251,WeatherCatV1.13B119,2013-02-22 17:00:00,
2013-02-22 12:05:00,36.0,23.9,30.21,NE,45,0.0,5.0,61,0.00,,,0.00,244,WeatherCatV1.13B119,2013-02-22 17:05:00,
2013-02-22 12:10:00,36.0,24.3,30.21,NE,45,0.0,1.0,62,0.00,,,0.00,243,WeatherCatV1.13B119,2013-02-22 17:10:00,
2013-02-22 12:15:00,36.0,23.9,30.21,ENE,65,0.0,3.0,61,0.00,,,0.00,279,WeatherCatV1.13B119,2013-02-22 17:15:00,
2013-02-22 12:20:00,35.5,23.0,30.21,ESE,103,0.0,0.0,60,0.00,,,0.00,236,WeatherCatV1.13B119,2013-02-22 17:20:00,
2013-02-22 12:25:00,36.2,24.8,30.20,NE,41,2.0,3.0,63,0.00,,,0.00,248,WeatherCatV1.13B119,2013-02-22 17:25:00,
2013-02-22 12:30:00,36.4,23.9,30.20,ENE,72,2.0,5.0,60,0.00,,,0.00,376,WeatherCatV1.13B119,2013-02-22 17:30:00,
2013-02-22 12:35:00,36.7,24.1,30.20,NE,55,1.0,3.0,60,0.00,,,0.00,366,WeatherCatV1.13B119,2013-02-22 17:35:00,
2013-02-22 12:40:00,35.9,23.4,30.19,East,82,0.0,0.0,60,0.00,,,0.00,225,WeatherCatV1.13B119,2013-02-22 17:40:00,
2013-02-22 12:45:00,35.7,24.4,30.19,NE,52,1.0,3.0,63,0.00,,,0.00,214,WeatherCatV1.13B119,2013-02-22 17:45:00,
2013-02-22 12:50:00,36.1,24.0,30.19,NW,323,4.0,4.0,61,0.00,,,0.00,229,WeatherCatV1.13B119,2013-02-22 17:50:00,
2013-02-22 12:55:00,36.1,23.6,30.19,North,355,0.0,4.0,60,0.00,,,0.00,236,WeatherCatV1.13B119,2013-02-22 17:55:00,
2013-02-22 13:00:00,36.1,24.4,30.19,NE,53,3.0,4.0,62,0.00,,,0.00,186,WeatherCatV1.13B119,2013-02-22 18:00:00,
2013-02-22 13:05:00,35.6,23.5,30.19,NE,46,1.0,3.0,61,0.00,,,0.00,195,WeatherCatV1.13B119,2013-02-22 18:05:00,
2013-02-22 13:10:00,35.6,23.9,30.19,NE,53,0.0,0.0,62,0.00,,,0.00,216,WeatherCatV1.13B119,2013-02-22 18:10:00,
2013-02-22 13:15:00,35.8,24.1,30.19,North,5,0.0,0.0,62,0.00,,,0.00,199,WeatherCatV1.13B119,2013-02-22 18:15:00,
2013-02-22 13:20:00,36.0,24.6,30.18,East,80,0.0,2.0,63,0.00,,,0.00,202,WeatherCatV1.13B119,2013-02-22 18:20:00,
2013-02-22 13:25:00,35.8,24.5,30.18,NNE,13,1.0,3.0,63,0.00,,,0.00,237,WeatherCatV1.13B119,2013-02-22 18:25:00,
2013-02-22 13:30:00,36.2,25.2,30.17,NE,50,0.0,0.0,64,0.00,,,0.00,223,WeatherCatV1.13B119,2013-02-22 18:30:00,
2013-02-22 13:35:00,36.5,24.3,30.17,NE,38,1.0,3.0,61,0.00,,,0.00,214,WeatherCatV1.13B119,2013-02-22 18:35:00,
2013-02-22 13:40:00,36.2,24.8,30.17,ENE,65,0.0,4.0,63,0.00,,,0.00,227,WeatherCatV1.13B119,2013-02-22 18:40:00,
2013-02-22 13:45:00,36.4,25.4,30.17,ENE,75,0.0,0.0,64,0.00,,,0.00,225,WeatherCatV1.13B119,2013-02-22 18:45:00,
2013-02-22 13:50:00,36.4,24.6,30.17,East,82,1.0,6.0,62,0.00,,,0.00,200,WeatherCatV1.13B119,2013-02-22 18:50:00,
2013-02-22 13:55:00,36.4,25.0,30.16,ENE,64,0.0,3.0,63,0.00,,,0.00,206,WeatherCatV1.13B119,2013-02-22 18:55:00,
2013-02-22 14:00:00,36.2,25.2,30.17,NE,42,2.0,5.0,64,0.00,,,0.00,230,WeatherCatV1.13B119,2013-02-22 19:00:00,
2013-02-22 14:05:00,36.6,25.6,30.17,NW,320,0.0,4.0,64,0.00,,,0.00,246,WeatherCatV1.13B119,2013-02-22 19:05:00,
2013-02-22 14:10:00,36.6,24.8,30.17,ENE,57,2.0,3.0,62,0.00,,,0.00,207,WeatherCatV1.13B119,2013-02-22 19:10:00,
2013-02-22 14:15:00,36.9,25.9,30.17,NE,53,1.0,1.0,64,0.00,,,0.00,209,WeatherCatV1.13B119,2013-02-22 19:15:00,
2013-02-22 14:20:00,37.0,25.6,30.17,NE,55,1.0,1.0,63,0.00,,,0.00,236,WeatherCatV1.13B119,2013-02-22 19:20:00,
2013-02-22 14:25:00,37.0,24.8,30.16,NE,55,2.0,3.0,61,0.00,,,0.00,169,WeatherCatV1.13B119,2013-02-22 19:25:00,
2013-02-22 14:30:00,37.1,26.1,30.16,NE,42,2.0,4.0,64,0.00,,,0.00,192,WeatherCatV1.13B119,2013-02-22 19:30:00,
2013-02-22 14:35:00,37.3,25.5,30.16,NE,53,0.0,1.0,62,0.00,,,0.00,174,WeatherCatV1.13B119,2013-02-22 19:35:00,
2013-02-22 14:40:00,37.4,25.6,30.16,SE,130,4.0,4.0,62,0.00,,,0.00,178,WeatherCatV1.13B119,2013-02-22 19:40:00,
2013-02-22 14:45:00,37.5,25.7,30.16,East,101,0.0,4.0,62,0.00,,,0.00,151,WeatherCatV1.13B119,2013-02-22 19:45:00,
2013-02-22 14:50:00,37.7,25.9,30.16,NE,36,1.0,4.0,62,0.00,,,0.00,162,WeatherCatV1.13B119,2013-02-22 19:50:00,
2013-02-22 14:55:00,37.5,25.3,30.16,East,82,0.0,1.0,61,0.00,,,0.00,151,WeatherCatV1.13B119,2013-02-22 19:55:00,
2013-02-22 15:00:00,37.3,25.9,30.16,NE,49,0.0,2.0,63,0.00,,,0.00,137,WeatherCatV1.13B119,2013-02-22 20:00:00,
2013-02-22 15:05:00,37.3,25.5,30.16,NE,55,0.0,0.0,62,0.00,,,0.00,125,WeatherCatV1.13B119,2013-02-22 20:05:00,
2013-02-22 15:10:00,37.4,25.6,30.16,ENE,59,1.0,2.0,62,0.00,,,0.00,107,WeatherCatV1.13B119,2013-02-22 20:10:00,
2013-02-22 15:15:00,37.4,25.6,30.15,East,82,0.0,2.0,62,0.00,,,0.00,102,WeatherCatV1.13B119,2013-02-22 20:15:00,
2013-02-22 15:20:00,37.3,25.5,30.15,ENE,69,1.0,3.0,62,0.00,,,0.00,116,WeatherCatV1.13B119,2013-02-22 20:20:00,
2013-02-22 15:25:00,37.4,25.2,30.15,ESE,111,1.0,1.0,61,0.00,,,0.00,100,WeatherCatV1.13B119,2013-02-22 20:25:00,
2013-02-22 15:30:00,37.4,26.0,30.15,ENE,65,0.0,1.0,63,0.00,,,0.00,93,WeatherCatV1.13B119,2013-02-22 20:30:00,
2013-02-22 15:35:00,37.5,25.7,30.15,ENE,65,0.0,0.0,62,0.00,,,0.00,91,WeatherCatV1.13B119,2013-02-22 20:35:00,
2013-02-22 15:40:00,37.2,26.2,30.15,NE,35,0.0,3.0,64,0.00,,,0.00,105,WeatherCatV1.13B119,2013-02-22 20:40:00,
2013-02-22 15:45:00,36.7,25.7,30.16,NE,53,0.0,4.0,64,0.00,,,0.00,120,WeatherCatV1.13B119,2013-02-22 20:45:00,
2013-02-22 15:50:00,36.5,25.5,30.16,NE,46,0.0,3.0,64,0.00,,,0.00,104,WeatherCatV1.13B119,2013-02-22 20:50:00,
2013-02-22 15:55:00,36.4,26.1,30.16,NE,47,0.0,1.0,66,0.00,,,0.00,88,WeatherCatV1.13B119,2013-02-22 20:55:00,
2013-02-22 16:00:00,36.4,26.5,30.16,NE,46,0.0,3.0,67,0.00,,,0.00,83,WeatherCatV1.13B119,2013-02-22 21:00:00,
2013-02-22 16:05:00,36.3,25.7,30.16,ENE,74,0.0,1.0,65,0.00,,,0.00,58,WeatherCatV1.13B119,2013-02-22 21:05:00,
2013-02-22 16:10:00,36.3,26.4,30.16,East,80,0.0,1.0,67,0.00,,,0.00,51,WeatherCatV1.13B119,2013-02-22 21:10:00,
2013-02-22 16:15:00,36.5,26.2,30.16,SSE,153,0.0,2.0,66,0.00,,,0.00,47,WeatherCatV1.13B119,2013-02-22 21:15:00,
2013-02-22 16:20:00,36.9,26.6,30.16,ESE,110,0.0,5.0,66,0.00,,,0.00,49,WeatherCatV1.13B119,2013-02-22 21:20:00,
2013-02-22 16:25:00,36.9,26.2,30.16,WSW,252,2.0,2.0,65,0.00,,,0.00,47,WeatherCatV1.13B119,2013-02-22 21:25:00,
2013-02-22 16:30:00,37.0,26.7,30.17,ENE,63,0.0,1.0,66,0.00,,,0.00,54,WeatherCatV1.13B119,2013-02-22 21:30:00,
2013-02-22 16:35:00,37.0,26.3,30.17,ESE,103,2.0,4.0,65,0.00,,,0.00,35,WeatherCatV1.13B119,2013-02-22 21:35:00,
2013-02-22 16:40:00,36.9,26.2,30.17,ESE,108,2.0,2.0,65,0.00,,,0.00,25,WeatherCatV1.13B119,2013-02-22 21:40:00,
2013-02-22 16:45:00,36.6,26.3,30.17,East,97,0.0,2.0,66,0.00,,,0.00,18,WeatherCatV1.13B119,2013-02-22 21:45:00,
2013-02-22 16:50:00,36.4,26.5,30.17,SE,128,4.0,4.0,67,0.00,,,0.00,14,WeatherCatV1.13B119,2013-02-22 21:50:00,
2013-02-22 16:55:00,36.3,26.4,30.17,SE,140,0.0,1.0,67,0.00,,,0.00,14,WeatherCatV1.13B119,2013-02-22 21:55:00,
2013-02-22 17:00:00,36.2,26.7,30.17,SE,140,0.0,0.0,68,0.00,,,0.00,12,WeatherCatV1.13B119,2013-02-22 22:00:00,
2013-02-22 17:05:00,36.1,26.6,30.17,ESE,120,2.0,5.0,68,0.00,,,0.00,9,WeatherCatV1.13B119,2013-02-22 22:05:00,
2013-02-22 17:10:00,36.0,26.5,30.17,ESE,110,0.0,2.0,68,0.00,,,0.00,9,WeatherCatV1.13B119,2013-02-22 22:10:00,
2013-02-22 17:15:00,36.0,26.8,30.17,ESE,110,0.0,0.0,69,0.00,,,0.00,7,WeatherCatV1.13B119,2013-02-22 22:15:00,
2013-02-22 17:20:00,36.0,26.8,30.17,SE,146,0.0,2.0,69,0.00,,,0.00,5,WeatherCatV1.13B119,2013-02-22 22:20:00,
2013-02-22 17:25:00,35.9,27.1,30.18,SE,146,0.0,0.0,70,0.00,,,0.00,0,WeatherCatV1.13B119,2013-02-22 22:25:00,
2013-02-22 17:30:00,35.8,27.3,30.18,SSE,157,0.0,2.0,71,0.00,,,0.00,0,WeatherCatV1.13B119,2013-02-22 22:30:00,
2013-02-22 17:35:00,35.8,27.3,30.18,ESE,110,1.0,2.0,71,0.00,,,0.00,0,WeatherCatV1.13B119,2013-02-22 22:35:00,
2013-02-22 17:40:00,35.8,27.7,30.18,SE,135,0.0,0.0,72,0.00,,,0.00,0,WeatherCatV1.13B119,2013-02-22 22:40:00,
2013-02-22 17:45:00,35.7,27.9,30.18,SE,131,0.0,1.0,73,0.00,,,0.00,0,WeatherCatV1.13B119,2013-02-22 22:45:00,
2013-02-22 17:50:00,35.6,27.8,30.17,SE,131,0.0,1.0,73,0.00,,,0.00,0,WeatherCatV1.13B119,2013-02-22 22:50:00,
2013-02-22 17:55:00,35.7,27.9,30.17,NNE,27,2.0,2.0,73,0.00,,,0.00,0,WeatherCatV1.13B119,2013-02-22 22:55:00,
2013-02-22 18:00:00,35.7,28.2,30.17,East,94,0.0,2.0,74,0.00,,,0.00,0,WeatherCatV1.13B119,2013-02-22 23:00:00,
2013-02-22 18:05:00,35.6,28.5,30.18,East,94,0.0,1.0,75,0.00,,,0.00,0,WeatherCatV1.13B119,2013-02-22 23:05:00,
2013-02-22 18:10:00,35.6,28.5,30.18,East,94,0.0,0.0,75,0.00,,,0.00,0,WeatherCatV1.13B119,2013-02-22 23:10:00,
2013-02-22 18:15:00,35.5,28.4,30.18,East,94,0.0,0.0,75,0.00,,,0.00,0,WeatherCatV1.13B119,2013-02-22 23:15:00,
2013-02-22 18:21:00,35.5,28.4,30.18,East,94,0.0,0.0,75,0.00,,,0.00,0,WeatherCatV1.13B119,2013-02-22 23:21:00,
2013-02-22 18:26:00,35.5,28.4,30.18,East,94,0.0,0.0,75,0.00,,,0.00,0,WeatherCatV1.13B119,2013-02-22 23:26:00,
2013-02-22 18:31:00,35.5,28.7,30.17,East,99,1.0,4.0,76,0.00,,,0.00,0,WeatherCatV1.13B119,2013-02-22 23:31:00,
2013-02-22 18:36:00,35.6,28.8,30.17,ESE,109,2.0,4.0,76,0.00,,,0.00,0,WeatherCatV1.13B119,2013-02-22 23:36:00,
2013-02-22 18:41:00,35.6,28.8,30.17,SE,137,2.0,4.0,76,0.00,,,0.00,0,WeatherCatV1.13B119,2013-02-22 23:41:00,
2013-02-22 18:46:00,35.6,28.8,30.17,SE,136,0.0,4.0,76,0.00,,,0.00,0,WeatherCatV1.13B119,2013-02-22 23:46:00,
2013-02-22 18:51:00,35.6,28.8,30.16,East,92,0.0,1.0,76,0.00,,,0.00,0,WeatherCatV1.13B119,2013-02-22 23:51:00,
2013-02-22 18:56:00,35.5,28.7,30.17,East,88,0.0,1.0,76,0.00,,,0.00,0,WeatherCatV1.13B119,2013-02-22 23:56:00,
2013-02-22 19:01:00,35.5,29.0,30.17,East,84,0.0,0.0,77,0.00,,,0.00,0,WeatherCatV1.13B119,2013-02-23 00:01:00,
2013-02-22 19:06:00,35.5,29.0,30.17,ENE,73,2.0,2.0,77,0.00,,,0.00,0,WeatherCatV1.13B119,2013-02-23 00:06:00,
2013-02-22 19:11:00,35.5,29.0,30.17,NE,51,2.0,3.0,77,0.00,,,0.00,0,WeatherCatV1.13B119,2013-02-23 00:11:00,
2013-02-22 19:16:00,35.5,29.0,30.17,ENE,59,0.0,2.0,77,0.00,,,0.00,0,WeatherCatV1.13B119,2013-02-23 00:16:00,
2013-02-22 19:21:00,35.5,29.0,30.17,ENE,59,0.0,0.0,77,0.00,,,0.00,0,WeatherCatV1.13B119,2013-02-23 00:21:00,
2013-02-22 19:26:00,35.5,29.0,30.17,ENE,59,0.0,0.0,77,0.00,,,0.00,0,WeatherCatV1.13B119,2013-02-23 00:26:00,
2013-02-22 19:31:00,35.4,28.9,30.17,ESE,110,1.0,2.0,77,0.00,,,0.00,0,WeatherCatV1.13B119,2013-02-23 00:31:00,
2013-02-22 19:36:00,35.4,28.9,30.16,East,82,0.0,0.0,77,0.00,,,0.00,0,WeatherCatV1.13B119,2013-02-23 00:36:00,
2013-02-22 19:41:00,35.4,28.9,30.16,SE,138,0.0,2.0,77,0.00,,,0.00,0,WeatherCatV1.13B119,2013-02-23 00:41:00,
2013-02-22 19:46:00,35.4,28.9,30.16,East,91,0.0,1.0,77,0.00,,,0.00,0,WeatherCatV1.13B119,2013-02-23 00:46:00,
2013-02-22 19:51:00,35.4,28.9,30.16,East,91,0.0,0.0,77,0.00,,,0.00,0,WeatherCatV1.13B119,2013-02-23 00:51:00,
2013-02-22 19:56:00,35.3,28.8,30.17,NNE,24,0.0,0.0,77,0.00,,,0.00,0,WeatherCatV1.13B119,2013-02-23 00:56:00,
2013-02-22 20:01:00,35.3,29.1,30.17,NNE,24,0.0,0.0,78,0.00,,,0.00,0,WeatherCatV1.13B119,2013-02-23 01:01:00,
2013-02-22 20:06:00,35.3,28.8,30.17,ESE,102,0.0,2.0,77,0.00,,,0.00,0,WeatherCatV1.13B119,2013-02-23 01:06:00,
2013-02-22 20:11:00,35.4,28.9,30.17,ESE,102,0.0,1.0,77,0.00,,,0.00,0,WeatherCatV1.13B119,2013-02-23 01:11:00,
2013-02-22 20:16:00,35.5,29.0,30.17,ESE,103,0.0,1.0,77,0.00,,,0.00,0,WeatherCatV1.13B119,2013-02-23 01:16:00,
2013-02-22 20:21:00,35.4,29.2,30.17,ESE,103,0.0,0.0,78,0.00,,,0.00,0,WeatherCatV1.13B119,2013-02-23 01:21:00,
2013-02-22 20:26:00,35.4,29.2,30.17,East,92,0.0,0.0,78,0.00,,,0.00,0,WeatherCatV1.13B119,2013-02-23 01:26:00,
2013-02-22 20:31:00,35.3,29.1,30.17,East,92,0.0,1.0,78,0.00,,,0.00,0,WeatherCatV1.13B119,2013-02-23 01:31:00,
2013-02-22 20:36:00,35.4,29.2,30.17,East,89,0.0,0.0,78,0.00,,,0.00,0,WeatherCatV1.13B119,2013-02-23 01:36:00,
2013-02-22 20:41:00,35.4,29.2,30.16,East,94,0.0,2.0,78,0.00,,,0.00,0,WeatherCatV1.13B119,2013-02-23 01:41:00,
2013-02-22 20:46:00,35.4,29.2,30.16,SE,133,1.0,6.0,78,0.00,,,0.00,0,WeatherCatV1.13B119,2013-02-23 01:46:00,
2013-02-22 20:51:00,35.4,29.5,30.16,ESE,117,0.0,2.0,79,0.00,,,0.00,0,WeatherCatV1.13B119,2013-02-23 01:51:00,
2013-02-22 20:56:00,35.5,29.6,30.16,ESE,109,0.0,0.0,79,0.00,,,0.00,0,WeatherCatV1.13B119,2013-02-23 01:56:00,
2013-02-22 21:01:00,35.5,29.6,30.16,ESE,109,0.0,0.0,79,0.00,,,0.00,0,WeatherCatV1.13B119,2013-02-23 02:01:00,
2013-02-22 21:06:00,35.4,29.5,30.16,East,96,1.0,1.0,79,0.00,,,0.00,0,WeatherCatV1.13B119,2013-02-23 02:06:00,
2013-02-22 21:11:00,35.4,29.5,30.16,East,96,0.0,0.0,79,0.00,,,0.00,0,WeatherCatV1.13B119,2013-02-23 02:11:00,
2013-02-22 21:16:00,35.3,29.8,30.16,East,96,0.0,0.0,80,0.00,,,0.00,0,WeatherCatV1.13B119,2013-02-23 02:16:00,
2013-02-22 21:21:00,35.5,29.6,30.16,ESE,113,0.0,1.0,79,0.00,,,0.00,0,WeatherCatV1.13B119,2013-02-23 02:21:00,
2013-02-22 21:26:00,35.4,29.9,30.15,ESE,118,0.0,0.0,80,0.00,,,0.00,0,WeatherCatV1.13B119,2013-02-23 02:26:00,
2013-02-22 21:31:00,35.4,29.9,30.15,ESE,108,0.0,1.0,80,0.00,,,0.00,0,WeatherCatV1.13B119,2013-02-23 02:31:00,
2013-02-22 21:36:00,35.5,30.0,30.15,East,98,0.0,1.0,80,0.00,,,0.00,0,WeatherCatV1.13B119,2013-02-23 02:36:00,
2013-02-22 21:41:00,35.5,30.0,30.15,East,98,0.0,0.0,80,0.00,,,0.00,0,WeatherCatV1.13B119,2013-02-23 02:41:00,
2013-02-22 21:46:00,35.5,30.0,30.15,ENE,70,0.0,0.0,80,0.00,,,0.00,0,WeatherCatV1.13B119,2013-02-23 02:46:00,
2013-02-22 21:51:00,35.3,29.8,30.15,ENE,70,0.0,0.0,80,0.00,,,0.00,0,WeatherCatV1.13B119,2013-02-23 02:51:00,
2013-02-22 21:56:00,35.3,29.8,30.15,ENE,64,0.0,1.0,80,0.00,,,0.00,0,WeatherCatV1.13B119,2013-02-23 02:56:00,
2013-02-22 22:01:00,35.4,29.9,30.14,ENE,64,0.0,0.0,80,0.00,,,0.00,0,WeatherCatV1.13B119,2013-02-23 03:01:00,
2013-02-22 22:06:00,35.4,29.9,30.14,ENE,64,0.0,0.0,80,0.00,,,0.00,0,WeatherCatV1.13B119,2013-02-23 03:06:00,
2013-02-22 22:11:00,35.4,30.2,30.14,ENE,64,0.0,0.0,81,0.00,,,0.00,0,WeatherCatV1.13B119,2013-02-23 03:11:00,
2013-02-22 22:16:00,35.5,30.3,30.14,NE,51,0.0,0.0,81,0.00,,,0.00,0,WeatherCatV1.13B119,2013-02-23 03:16:00,
2013-02-22 22:21:00,35.5,30.3,30.14,ENE,57,0.0,0.0,81,0.00,,,0.00,0,WeatherCatV1.13B119,2013-02-23 03:21:00,
2013-02-22 22:26:00,35.6,30.4,30.14,ENE,62,0.0,0.0,81,0.00,,,0.00,0,WeatherCatV1.13B119,2013-02-23 03:26:00,
2013-02-22 22:31:00,35.6,30.4,30.14,ENE,62,0.0,0.0,81,0.00,,,0.00,0,WeatherCatV1.13B119,2013-02-23 03:31:00,
2013-02-22 22:36:00,35.7,30.5,30.14,ESE,108,0.0,0.0,81,0.00,,,0.00,0,WeatherCatV1.13B119,2013-02-23 03:36:00,
2013-02-22 22:41:00,35.7,30.5,30.14,ESE,109,0.0,0.0,81,0.00,,,0.00,0,WeatherCatV1.13B119,2013-02-23 03:41:00,
2013-02-22 22:46:00,35.6,30.4,30.14,ESE,109,0.0,0.0,81,0.00,,,0.00,0,WeatherCatV1.13B119,2013-02-23 03:46:00,
2013-02-22 22:51:00,35.6,30.4,30.14,ESE,109,0.0,0.0,81,0.00,,,0.00,0,WeatherCatV1.13B119,2013-02-23 03:51:00,
2013-02-22 22:56:00,35.7,30.5,30.14,ESE,109,0.0,0.0,81,0.00,,,0.00,0,WeatherCatV1.13B119,2013-02-23 03:56:00,
2013-02-22 23:01:00,35.7,30.5,30.13,ESE,108,0.0,0.0,81,0.00,,,0.00,0,WeatherCatV1.13B119,2013-02-23 04:01:00,
2013-02-22 23:06:00,35.8,30.6,30.13,ESE,109,0.0,0.0,81,0.00,,,0.00,0,WeatherCatV1.13B119,2013-02-23 04:06:00,
2013-02-22 23:11:00,35.9,30.6,30.13,ESE,108,0.0,0.0,81,0.00,,,0.00,0,WeatherCatV1.13B119,2013-02-23 04:11:00,
2013-02-22 23:16:00,35.9,31.0,30.13,ESE,109,0.0,0.0,82,0.00,,,0.00,0,WeatherCatV1.13B119,2013-02-23 04:16:00,
2013-02-22 23:21:00,35.9,30.6,30.13,ESE,108,0.0,0.0,81,0.00,,,0.00,0,WeatherCatV1.13B119,2013-02-23 04:21:00,
2013-02-22 23:26:00,35.9,30.6,30.13,ESE,109,0.0,0.0,81,0.00,,,0.00,0,WeatherCatV1.13B119,2013-02-23 04:26:00,
2013-02-22 23:31:00,35.9,31.0,30.13,ESE,109,0.0,0.0,82,0.00,,,0.00,0,WeatherCatV1.13B119,2013-02-23 04:31:00,
2013-02-22 23:36:00,35.9,31.0,30.13,ESE,108,0.0,0.0,82,0.00,,,0.00,0,WeatherCatV1.13B119,2013-02-23 04:36:00,
2013-02-22 23:41:00,36.0,31.0,30.13,ESE,109,0.0,0.0,82,0.00,,,0.00,0,WeatherCatV1.13B119,2013-02-23 04:41:00,
2013-02-22 23:46:00,36.0,31.0,30.12,ESE,109,0.0,0.0,82,0.00,,,0.00,0,WeatherCatV1.13B119,2013-02-23 04:46:00,
2013-02-22 23:51:00,35.9,31.0,30.12,ESE,109,0.0,0.0,82,0.00,,,0.00,0,WeatherCatV1.13B119,2013-02-23 04:51:00,
2013-02-22 23:56:00,35.8,31.2,30.12,ESE,109,0.0,0.0,83,0.00,,,0.00,0,WeatherCatV1.13B119,2013-02-23 04:56:00,